Meteo pe oră la Timişoara

Astăzi, 17 Aprilie, Sâmbătă

Timp Temperatura Precipitaţii Vânt Presiune Umiditate
00:00 +2°C° 0 mm 1 m/s 757 mmHg 80%
01:00 +2°C° 0 mm 1 m/s 756 mmHg 83%
02:00 +1°C° 0 mm 1 m/s 756 mmHg 84%
03:00 +1°C° 0 mm 1 m/s 756 mmHg 85%
04:00 +1°C° 0 mm 1 m/s 756 mmHg 86%
05:00 +2°C° 0 mm 1 m/s 756 mmHg 82%
06:00 +4°C° 0 mm 1 m/s 756 mmHg 77%
07:00 +4°C° 0 mm 2 m/s 756 mmHg 73%
08:00 +7°C° 0 mm 1 m/s 756 mmHg 67%
09:00 +8°C° 0 mm 1 m/s 755 mmHg 61%
10:00 +10°C° 0 mm 1 m/s 755 mmHg 55%
11:00 +11°C° 0 mm 1 m/s 755 mmHg 53%
12:00 +12°C° 0 mm 1 m/s 754 mmHg 50%
13:00 +12°C° 0 mm 0 m/s 754 mmHg 48%
14:00 +12°C° 0 mm 1 m/s 754 mmHg 51%
15:00 +12°C° 0 mm 1 m/s 753 mmHg 55%
16:00 +12°C° 0 mm 1 m/s 753 mmHg 58%
17:00 +11°C° 0 mm 1 m/s 753 mmHg 62%
18:00 +9°C° 0 mm 2 m/s 753 mmHg 67%
19:00 +8°C° 0 mm 2 m/s 753 mmHg 71%
20:00 +7°C° 0 mm 2 m/s 753 mmHg 73%
21:00 +7°C° 0 mm 2 m/s 753 mmHg 75%
22:00 +8°C° 0 mm 1 m/s 753 mmHg 77%
23:00 +8°C° 0.1 mm 1 m/s 753 mmHg 79%

Mâine, 18 Aprilie, Duminică

Timp Temperatura Precipitaţii Vânt Presiune Umiditate
00:00 +6°C° 0.1 mm 2 m/s 753 mmHg 80%
01:00 +6°C° 0.1 mm 2 m/s 753 mmHg 81%
02:00 +6°C° 0.5 mm 2 m/s 752 mmHg 85%
03:00 +6°C° 0.5 mm 2 m/s 752 mmHg 88%
04:00 +6°C° 0.5 mm 2 m/s 752 mmHg 92%
05:00 +6°C° 1.4 mm 2 m/s 752 mmHg 93%
06:00 +6°C° 1.4 mm 2 m/s 752 mmHg 94%
07:00 +6°C° 1.4 mm 2 m/s 752 mmHg 95%
08:00 +7°C° 0.8 mm 2 m/s 752 mmHg 94%
09:00 +7°C° 0.8 mm 2 m/s 752 mmHg 92%
10:00 +7°C° 0.8 mm 2 m/s 753 mmHg 91%
11:00 +7°C° 0.6 mm 2 m/s 753 mmHg 91%
12:00 +8°C° 0.6 mm 1 m/s 753 mmHg 91%
13:00 +8°C° 0.6 mm 1 m/s 753 mmHg 91%
14:00 +7°C° 0.3 mm 2 m/s 753 mmHg 92%
15:00 +7°C° 0.3 mm 2 m/s 753 mmHg 93%
16:00 +5°C° 0.3 mm 3 m/s 754 mmHg 93%
17:00 +6°C° 0.3 mm 2 m/s 754 mmHg 94%
18:00 +6°C° 0.3 mm 2 m/s 754 mmHg 94%
19:00 +6°C° 0.3 mm 2 m/s 754 mmHg 94%
20:00 +6°C° 0 mm 2 m/s 754 mmHg 94%
21:00 +7°C° 0 mm 1 m/s 754 mmHg 94%
22:00 +7°C° 0 mm 1 m/s 754 mmHg 94%
23:00 +7°C° 0 mm 1 m/s 754 mmHg 95%

Poimâine, 19 Aprilie, Luni

Timp Temperatura Precipitaţii Vânt Presiune Umiditate
00:00 +7°C° 0 mm 1 m/s 754 mmHg 95%
01:00 +7°C° 0 mm 1 m/s 754 mmHg 96%
02:00 +7°C° 0 mm 1 m/s 753 mmHg 96%
03:00 +6°C° 0 mm 1 m/s 753 mmHg 96%
04:00 +6°C° 0 mm 1 m/s 753 mmHg 96%
05:00 +6°C° 0 mm 0 m/s 753 mmHg 93%
06:00 +7°C° 0 mm 0 m/s 753 mmHg 90%
07:00 +7°C° 0 mm 0 m/s 753 mmHg 88%
08:00 +8°C° 0 mm 0 m/s 752 mmHg 81%
09:00 +10°C° 0 mm 1 m/s 752 mmHg 74%
10:00 +12°C° 0 mm 1 m/s 752 mmHg 68%
11:00 +12°C° 0 mm 1 m/s 752 mmHg 67%
12:00 +12°C° 0 mm 2 m/s 751 mmHg 65%
13:00 +12°C° 0 mm 2 m/s 751 mmHg 64%
14:00 +12°C° 0 mm 2 m/s 751 mmHg 66%
15:00 +12°C° 0 mm 2 m/s 751 mmHg 69%
16:00 +12°C° 0 mm 2 m/s 750 mmHg 71%
17:00 +10°C° 0 mm 2 m/s 750 mmHg 73%
18:00 +9°C° 0 mm 2 m/s 750 mmHg 74%
19:00 +9°C° 0 mm 2 m/s 750 mmHg 76%
20:00 +9°C° 0 mm 2 m/s 750 mmHg 78%
21:00 +8°C° 0 mm 2 m/s 750 mmHg 80%
22:00 +8°C° 0 mm 2 m/s 750 mmHg 82%
23:00 +8°C° 0 mm 2 m/s 750 mmHg 83%

20 Aprilie, Marţi

Timp Temperatura Precipitaţii Vânt Presiune Umiditate
00:00 +8°C° 0 mm 2 m/s 750 mmHg 85%
01:00 +7°C° 0 mm 2 m/s 750 mmHg 87%
02:00 +7°C° 0 mm 2 m/s 750 mmHg 87%
03:00 +7°C° 0 mm 2 m/s 750 mmHg 88%
04:00 +7°C° 0 mm 2 m/s 750 mmHg 88%
05:00 +7°C° 0.1 mm 2 m/s 750 mmHg 88%
06:00 +7°C° 0.1 mm 2 m/s 750 mmHg 88%
07:00 +8°C° 0.1 mm 2 m/s 750 mmHg 87%
08:00 +9°C° 0.2 mm 2 m/s 750 mmHg 82%
09:00 +10°C° 0.2 mm 3 m/s 751 mmHg 77%
10:00 +10°C° 0.2 mm 3 m/s 751 mmHg 73%
11:00 +11°C° 0.2 mm 4 m/s 751 mmHg 69%
12:00 +12°C° 0.2 mm 4 m/s 751 mmHg 66%
13:00 +12°C° 0.2 mm 4 m/s 750 mmHg 63%
14:00 +12°C° 0.2 mm 4 m/s 750 mmHg 64%
15:00 +12°C° 0.2 mm 4 m/s 750 mmHg 65%
16:00 +12°C° 0.2 mm 4 m/s 750 mmHg 66%
17:00 +11°C° 0.2 mm 3 m/s 751 mmHg 73%
18:00 +9°C° 0.2 mm 3 m/s 751 mmHg 81%
19:00 +8°C° 0.2 mm 2 m/s 751 mmHg 88%
20:00 +8°C° 0.2 mm 2 m/s 752 mmHg 90%
21:00 +7°C° 0.2 mm 2 m/s 752 mmHg 92%
22:00 +7°C° 0.2 mm 2 m/s 752 mmHg 94%
23:00 +6°C° 0.1 mm 2 m/s 752 mmHg 94%

21 Aprilie, Miercuri

Timp Temperatura Precipitaţii Vânt Presiune Umiditate
00:00 +6°C° 0.1 mm 2 m/s 753 mmHg 94%
01:00 +6°C° 0.1 mm 2 m/s 753 mmHg 94%
02:00 +5°C° 0 mm 2 m/s 753 mmHg 95%
03:00 +5°C° 0 mm 2 m/s 753 mmHg 95%
04:00 +5°C° 0 mm 2 m/s 753 mmHg 95%
05:00 +6°C° 0 mm 2 m/s 754 mmHg 94%
06:00 +6°C° 0 mm 2 m/s 754 mmHg 93%
07:00 +7°C° 0 mm 2 m/s 754 mmHg 91%
08:00 +8°C° 0 mm 3 m/s 755 mmHg 88%
09:00 +9°C° 0 mm 3 m/s 755 mmHg 84%
10:00 +10°C° 0 mm 3 m/s 755 mmHg 80%
11:00 +11°C° 0.3 mm 3 m/s 755 mmHg 75%
12:00 +12°C° 0.3 mm 3 m/s 755 mmHg 70%
13:00 +13°C° 0.3 mm 3 m/s 755 mmHg 66%
14:00 +14°C° 0.3 mm 3 m/s 755 mmHg 65%
15:00 +14°C° 0.3 mm 3 m/s 755 mmHg 64%
16:00 +15°C° 0.3 mm 2 m/s 755 mmHg 64%
17:00 +14°C° 0.2 mm 2 m/s 755 mmHg 69%
18:00 +12°C° 0.2 mm 2 m/s 755 mmHg 75%
19:00 +10°C° 0.2 mm 2 m/s 755 mmHg 81%
20:00 +9°C° 0 mm 2 m/s 756 mmHg 83%
21:00 +9°C° 0 mm 2 m/s 756 mmHg 84%
22:00 +8°C° 0 mm 2 m/s 756 mmHg 86%
23:00 +8°C° 0 mm 2 m/s 756 mmHg 87%

22 Aprilie, Joi

Timp Temperatura Precipitaţii Vânt Presiune Umiditate
00:00 +7°C° 0 mm 2 m/s 756 mmHg 88%
01:00 +7°C° 0 mm 2 m/s 757 mmHg 88%
02:00 +7°C° 0 mm 2 m/s 757 mmHg 89%
03:00 +6°C° 0 mm 2 m/s 757 mmHg 89%
04:00 +6°C° 0 mm 2 m/s 757 mmHg 89%
05:00 +7°C° 0 mm 2 m/s 757 mmHg 86%
06:00 +9°C° 0 mm 2 m/s 757 mmHg 83%
07:00 +10°C° 0 mm 2 m/s 757 mmHg 80%
08:00 +13°C° 0 mm 2 m/s 757 mmHg 74%
09:00 +14°C° 0 mm 2 m/s 757 mmHg 69%
10:00 +16°C° 0 mm 2 m/s 757 mmHg 63%
11:00 +17°C° 0.3 mm 2 m/s 757 mmHg 61%
12:00 +18°C° 0.3 mm 3 m/s 757 mmHg 59%
13:00 +18°C° 0.3 mm 3 m/s 756 mmHg 57%
14:00 +18°C° 0.3 mm 3 m/s 756 mmHg 59%
15:00 +18°C° 0.3 mm 3 m/s 756 mmHg 60%
16:00 +18°C° 0.3 mm 2 m/s 756 mmHg 61%
17:00 +16°C° 0.2 mm 2 m/s 756 mmHg 66%
18:00 +15°C° 0.2 mm 1 m/s 756 mmHg 71%
19:00 +12°C° 0.2 mm 0 m/s 755 mmHg 75%
20:00 +12°C° 0.4 mm 1 m/s 756 mmHg 79%
21:00 +10°C° 0.4 mm 3 m/s 756 mmHg 84%
22:00 +8°C° 0.4 mm 4 m/s 757 mmHg 88%
23:00 +8°C° 0.4 mm 4 m/s 757 mmHg 90%
Arată mai mult

Formular de consimțământ

Meteoprog și furnizorii noștri de servicii pot stoca și accesa date personale, precum cookies, identificatori de dispozitiv sau alte tehnologii similare pe dispozitivul dumneavoastră și procesa astfel de date pentru a personaliza conținutul și reclamele, dar și pentru a oferi caracteristici de social media și pentru a analiza traficul.

  • Stocarea și/sau accesarea informațiilor pe dispozitivul dumneavoastră

    Cookies, identificatori de dispozitiv sau alte informații pot fi stocate sau accesate pe dispozitiv în scopurile indicate mai sus.

  • Reclame și conținut personalizat, evaluarea reclamelor și a conținutului, informații despre audiențe și dezvoltarea produselor

    Reclamele și conținutul pot fi personalizate pe baza unui profil. Pot fi adăugate date suplimentare pentru a personaliza mai bine reclamele și conținutul. Performanța reclamelor și conținutului poate fi măsurată. Pot fi obținute informații despre utilizatorii care au văzut reclamele și conținutul. Aceste date pot fi utilizate pentru a dezvolta sau îmbunătăți experiența utilizatorilor, sistemele și software-ul.

Dând clic pe ‘Sunt de acord’, permiteți utilizarea cookie-urilor menționate, a identificatorilor de dispozitiv, balizelor web sau altor tehnologii similare. Setările pot fi modificate din browser-ul dispozitivului dumneavoastră.

În anumite scopuri, interesele legitime pot prima asupra consimțământului. Puteți citi mai multe informații în acest sens în Politica privind Confidențialitatea Datelor și Cookie.